Home   Weather   Santander   Past weeks

Flag for Spain Past Weather in Santander, Spain — Yesterday and Last 2 Weeks

Now
54 °F

Scattered clouds.


Feels Like: 47 °F
Forecast: 48 / 60 °F
Wind: 29 mph from Northwest

Location: Santander / Parayas

Current Time: Apr 30, 2017 at 5:19:53 pm

Latest Report: Apr 30, 2017 at 4:30 pm


Visibility: N/A

Pressure: 29.80 "Hg

Humidity: 67%

Dew Point: 43 °F

Location of SantanderLocation

Past Weather in Santander — Graph

°F

Santander Temperature Yesterday

Maximum temperature yesterday: 72 °F (at 2:00 pm)
Minimum temperature yesterday: 39 °F (at 7:00 am)
Average temperature yesterday: 56 °F

High & Low Weather Summary for the Past Weeks

 TemperatureHumidityPressure
High72 °F (Apr 29, 2:00 pm)100% (Apr 16, 4:00 am)30.33 "Hg (Apr 16, 4:00 am)
Low37 °F (Apr 28, 7:00 am)35% (Apr 29, 1:30 pm)29.53 "Hg (Apr 30, 7:00 am)
Average54 °F74%30.09 "Hg
* Reported Apr 15 4:00 pm — Apr 30 4:00 pm, Santander, Weather by CustomWeather, © 2017

Note: Actual official high and low records may vary slightly from our data, if they occured in-between our weather recording intervals... More about our weather records

Advertising

Santander Weather History for the Previous 24 Hours

Scroll right to see more
 ConditionsComfort  
Time TempWeatherWind HumidityBarometerVisibility
4:00 pm
Sun, Apr 30
54 °FScattered clouds.22 mph67%29.77 "HgN/A
3:30 pm52 °FScattered clouds.25 mph72%29.77 "HgN/A
3:00 pm54 °FScattered clouds.10 mph77%29.74 "HgN/A
2:30 pm54 °FScattered clouds.10 mph77%29.71 "HgN/A
2:00 pm55 °FScattered clouds.10 mph72%29.71 "HgN/A
1:30 pm54 °FPartly sunny.9 mph72%29.71 "HgN/A
1:00 pm52 °FBroken clouds.6 mph72%29.68 "HgN/A
12:30 pm50 °FLight rain. Partly sunny.23 mph71%29.68 "HgN/A
12:00 pm50 °FLight rain. Partly sunny.25 mph76%29.68 "HgN/A
11:30 am50 °FPartly sunny.22 mph82%29.68 "HgN/A
11:05 am50 °FLight rain. Partly sunny.23 mph82%29.68 "Hg5 mi
11:00 am50 °FRain. Broken clouds.25 mph88%29.65 "Hg3 mi
10:30 am57 °FRain showers. Broken clouds.20 mph63%29.65 "Hg2 mi
10:00 am59 °FPassing clouds.15 mph55%29.56 "HgN/A
9:30 am57 °FScattered clouds.17 mph55%29.53 "HgN/A
9:00 am59 °FScattered clouds.21 mph48%29.53 "HgN/A
8:30 am59 °FScattered clouds.20 mph45%29.53 "HgN/A
8:00 am59 °FScattered clouds.21 mph48%29.53 "HgN/A
7:30 am59 °FPassing clouds.15 mph48%29.53 "HgN/A
7:00 am55 °FClear.7 mph63%29.53 "Hg10 mi
6:30 am59 °FPassing clouds.15 mph45%29.56 "HgN/A
5:30 am54 °FPassing clouds.3 mph82%29.56 "HgN/A
5:00 am50 °FPassing clouds.3 mph94%29.56 "HgN/A
4:30 am52 °FPassing clouds.No wind94%29.59 "HgN/A
4:00 am50 °FPassing clouds.No wind94%29.59 "HgN/A
3:30 am54 °FPassing clouds.1 mph88%29.62 "HgN/A
3:00 am55 °FClear.No wind82%29.62 "Hg4 mi
2:30 am55 °FClear.No wind82%29.65 "Hg6 mi
2:00 am55 °FClear.2 mph82%29.65 "Hg5 mi
1:30 am55 °FClear.5 mph82%29.65 "Hg4 mi
1:00 am55 °FClear.8 mph82%29.68 "Hg4 mi
12:30 am57 °FClear.8 mph82%29.68 "Hg6 mi
12:00 am59 °FClear.9 mph72%29.68 "Hg6 mi
11:30 pm
Sat, Apr 29
59 °FClear.13 mph72%29.65 "Hg10 mi
11:00 pm59 °FClear.15 mph68%29.65 "Hg10 mi
10:30 pm59 °FClear.1 mph72%29.65 "Hg10 mi
9:30 pm63 °FPassing clouds.8 mph64%29.62 "HgN/A
9:00 pm63 °FPassing clouds.9 mph64%29.62 "HgN/A
8:30 pm66 °FPassing clouds.10 mph60%29.62 "HgN/A
8:00 pm68 °FSunny.1 mph56%29.59 "Hg10 mi
7:30 pm64 °FPassing clouds.3 mph64%29.62 "HgN/A
7:00 pm66 °FScattered clouds.5 mph56%29.62 "HgN/A
6:30 pm70 °FScattered clouds.5 mph43%29.62 "HgN/A
6:00 pm68 °FScattered clouds.5 mph46%29.65 "HgN/A
5:30 pm66 °FScattered clouds.8 mph49%29.65 "HgN/A
5:00 pm68 °FScattered clouds.12 mph46%29.65 "HgN/A
Weather by CustomWeather, © 2017

See weather overviewHow to use our weather pages